This is the latest recevied weather packets stored in our database for station/object K7FLA. If no packets are shown the sender has not sent any weather packets the latest 10 day(s).
| Time | Temp. | Humidity | Pressure | Rain* | Wind** | Luminosity | Snow |
|---|---|---|---|---|---|---|---|
| 1778009505 | 16.67° C | 55% | 1094.9 hPa | 0 mm | - | 151 W/m² | - |
| 1778009204 | 16.67° C | 56% | 1095 hPa | 0 mm | - | 242 W/m² | - |
| 1778008901 | 16.67° C | 52% | 1095 hPa | 0 mm | - | 366 W/m² | - |
| 1778008599 | 16.11° C | 54% | 1095 hPa | 0 mm | - | 380 W/m² | - |
| 1778008297 | 16.11° C | 54% | 1095 hPa | 0 mm | - | 602 W/m² | - |
| 1778007993 | 16.11° C | 58% | 1095.1 hPa | 0 mm | - | 325 W/m² | - |
| 1778007687 | 15.56° C | 58% | 1095.1 hPa | 0 mm | - | 220 W/m² | - |
| 1778007385 | 16.11° C | 56% | 1095 hPa | 0 mm | - | 197 W/m² | - |
| 1778007081 | 16.11° C | 55% | 1095 hPa | 0 mm | - | 237 W/m² | - |
| 1778006777 | 16.67° C | 56% | 1095.1 hPa | 0 mm | - | 287 W/m² | - |
| 1778006474 | 16.67° C | 56% | 1095.1 hPa | 0 mm | - | 325 W/m² | - |
| 1778006171 | 16.67° C | 60% | 1095.2 hPa | 0 mm | - | 270 W/m² | - |
| 1778005869 | 16.67° C | 59% | 1095.1 hPa | 0 mm | - | 318 W/m² | - |
| 1778005565 | 16.67° C | 59% | 1095.1 hPa | 0 mm | - | 483 W/m² | - |
| 1778005262 | 16.11° C | 61% | 1095 hPa | 0 mm | - | 500 W/m² | - |
| 1778004958 | 16.11° C | 61% | 1095 hPa | 0 mm | - | 497 W/m² | - |
| 1778004656 | 16.11° C | 59% | 1094.9 hPa | 0 mm | - | 325 W/m² | - |
| 1778004351 | 16.67° C | 58% | 1094.9 hPa | 0 mm | - | 298 W/m² | - |
| 1778004050 | 16.67° C | 58% | 1094.9 hPa | 0 mm | - | 372 W/m² | - |
| 1778003750 | 16.67° C | 61% | 1094.8 hPa | 0 mm | - | 470 W/m² | - |
| 1778003447 | 16.67° C | 61% | 1094.8 hPa | 0 mm | - | 487 W/m² | - |
| 1778003144 | 16.67° C | 61% | 1094.7 hPa | 0 mm | - | 396 W/m² | - |
| 1778002840 | 16.67° C | 61% | 1094.7 hPa | 0 mm | - | 410 W/m² | - |
| 1778002537 | 16.67° C | 62% | 1094.8 hPa | 0 mm | - | 432 W/m² | - |
| 1778002233 | 16.67° C | 67% | 1094.7 hPa | 0 mm | - | 434 W/m² | - |
* Rain latest hour (hover to see other rain measurements)
** Current wind speed in m/s (hover to see current wind gust speed)